| time (UTC) | temp C | wind direction | speed KPH | gust KPH | rain 1hr cm | rain 24hr cm | rain mn cm | humidity % | barometer mb |
| 20260510164557 | 22 | 309 | 4.8 | 12.9 | 0.00 | 0.30 | 0.00 | 64 | 1013.9 |
| 20260510163048 | 22 | 305 | 1.6 | 12.9 | 0.00 | 0.30 | 0.00 | 65 | 1013.9 |
| 20260510161550 | 22 | 306 | 4.8 | 12.9 | 0.00 | 0.30 | 0.00 | 65 | 1014.0 |
| 20260510160056 | 21 | 72 | 1.6 | 6.4 | 0.00 | 0.30 | 0.00 | 69 | 1013.8 |
| 20260510154546 | 21 | 302 | 1.6 | 11.3 | 0.00 | 0.30 | 0.00 | 69 | 1014.0 |
| 20260510153037 | 20 | 260 | 3.2 | 9.7 | 0.00 | 0.30 | 0.00 | 70 | 1014.0 |
| 20260510151534 | 20 | 269 | 0.0 | 6.4 | 0.00 | 0.30 | 0.00 | 75 | 1014.0 |
| 20260510150030 | 18 | 296 | 0.0 | 0.0 | 0.00 | 0.30 | 0.00 | 79 | 1014.1 |
| 20260510144528 | 18 | 271 | 3.2 | 8.0 | 0.00 | 0.30 | 0.00 | 82 | 1014.2 |
| 20260510143023 | 17 | 284 | 1.6 | 6.4 | 0.00 | 0.30 | 0.00 | 84 | 1014.3 |
| 20260510141520 | 16 | 301 | 0.0 | 4.8 | 0.00 | 0.30 | 0.00 | 88 | 1014.3 |
| 20260510140016 | 15 | 277 | 0.0 | 4.8 | 0.00 | 0.30 | 0.00 | 91 | 1014.3 |
| 20260510134514 | 15 | 39 | 0.0 | 3.2 | 0.00 | 0.30 | 0.00 | 96 | 1014.0 |
| 20260510133011 | 14 | 87 | 0.0 | 1.6 | 0.00 | 0.30 | 0.00 | 97 | 1014.2 |
| 20260510131508 | 13 | 165 | 0.0 | 0.0 | 0.00 | 0.30 | 0.00 | 99 | 1014.2 |
| 20260510130007 | 12 | 165 | 0.0 | 0.0 | 0.00 | 0.30 | 0.00 | 98 | 1014.2 |
| 20260510124505 | 12 | 161 | 0.0 | 0.0 | 0.00 | 0.30 | 0.00 | 98 | 1014.4 |
| 20260510123108 | 11 | 161 | 0.0 | 0.0 | 0.00 | 0.30 | 0.00 | 98 | 1014.1 |
| 20260510121559 | 11 | 161 | 0.0 | 0.0 | 0.00 | 0.30 | 0.00 | 98 | 1013.7 |
| 20260510120056 | 11 | 76 | 0.0 | 0.0 | 0.00 | 0.30 | 0.00 | 98 | 1013.5 |
| 20260510114553 | 11 | 76 | 0.0 | 0.0 | 0.00 | 0.30 | 0.00 | 98 | 1013.2 |
| 20260510113100 | 10 | 76 | 0.0 | 0.0 | 0.00 | 0.30 | 0.00 | 98 | 1013.2 |
| 20260510111603 | 10 | 75 | 0.0 | 3.2 | 0.00 | 0.30 | 0.00 | 98 | 1013.1 |
| 20260510110043 | 10 | 71 | 0.0 | 0.0 | 0.00 | 0.30 | 0.00 | 98 | 1013.3 |
| 20260510104559 | 10 | 70 | 0.0 | 0.0 | 0.00 | 0.30 | 0.00 | 98 | 1013.1 |
| 20260510103042 | 10 | 71 | 0.0 | 0.0 | 0.00 | 0.30 | 0.00 | 98 | 1012.6 |
| 20260510101540 | 10 | 71 | 0.0 | 0.0 | 0.00 | 0.30 | 0.00 | 98 | 1012.6 |
| 20260510100040 | 10 | 71 | 0.0 | 0.0 | 0.00 | 0.30 | 0.00 | 98 | 1012.8 |
| 20260510094545 | 10 | 71 | 0.0 | 0.0 | 0.00 | 0.30 | 0.00 | 98 | 1012.6 |
| 20260510093040 | 10 | 71 | 0.0 | 0.0 | 0.00 | 0.30 | 0.00 | 98 | 1012.5 |
| 20260510091550 | 10 | 70 | 0.0 | 0.0 | 0.00 | 0.30 | 0.00 | 98 | 1012.4 |
| 20260510090037 | 10 | 62 | 0.0 | 0.0 | 0.00 | 0.30 | 0.00 | 98 | 1012.5 |
| 20260510084542 | 10 | 29 | 0.0 | 3.2 | 0.00 | 0.30 | 0.00 | 98 | 1012.7 |
| 20260510083033 | 9 | 194 | 1.6 | 6.4 | 0.00 | 0.30 | 0.00 | 98 | 1012.6 |
| 20260510081538 | 8 | 329 | 0.0 | 0.0 | 0.00 | 0.30 | 0.00 | 97 | 1012.4 |
| 20260510080037 | 9 | 44 | 0.0 | 0.0 | 0.00 | 0.30 | 0.00 | 97 | 1011.9 |
| 20260510074531 | 9 | 44 | 0.0 | 0.0 | 0.00 | 0.30 | 0.00 | 97 | 1011.8 |
| 20260510073036 | 9 | 45 | 0.0 | 0.0 | 0.00 | 0.30 | 0.00 | 97 | 1011.8 |
| 20260510071536 | 8 | 355 | 0.0 | 0.0 | 0.00 | 0.30 | 0.00 | 97 | 1011.9 |
| 20260510070028 | 8 | 343 | 0.0 | 0.0 | 0.00 | 0.30 | 0.00 | 97 | 1011.9 |
| 20260510064546 | 8 | 136 | 0.0 | 0.0 | 0.00 | 0.30 | 0.00 | 97 | 1011.7 |
| 20260510063033 | 8 | 137 | 0.0 | 0.0 | 0.00 | 0.30 | 0.00 | 97 | 1011.4 |
| 20260510061535 | 8 | 137 | 0.0 | 0.0 | 0.00 | 0.30 | 0.00 | 97 | 1011.5 |
| 20260510060031 | 8 | 137 | 0.0 | 0.0 | 0.00 | 0.30 | 0.00 | 97 | 1011.5 |
| 20260510054521 | 8 | 137 | 0.0 | 0.0 | 0.00 | 0.30 | 0.00 | 97 | 1011.6 |
| 20260510053019 | 8 | 137 | 0.0 | 1.6 | 0.00 | 0.30 | 0.00 | 97 | 1011.9 |
| 20260510051518 | 8 | 137 | 0.0 | 1.6 | 0.00 | 0.30 | 0.00 | 97 | 1011.9 |
| 20260510050015 | 8 | 360 | 0.0 | 0.0 | 0.00 | 0.30 | 0.00 | 96 | 1011.9 |
| 20260510044514 | 8 | 138 | 0.0 | 0.0 | 0.00 | 0.30 | 0.00 | 96 | 1012.0 |
| 20260510043014 | 8 | 137 | 0.0 | 0.0 | 0.00 | 0.30 | 0.00 | 96 | 1012.0 |
| 20260510041515 | 8 | 137 | 0.0 | 0.0 | 0.00 | 0.30 | 0.00 | 96 | 1012.1 |
| 20260510040010 | 8 | 139 | 0.0 | 0.0 | 0.00 | 0.30 | 0.00 | 96 | 1012.3 |
| 20260510034509 | 8 | 137 | 0.0 | 0.0 | 0.00 | 0.30 | 0.30 | 96 | 1012.2 |
| 20260510033011 | 9 | 137 | 0.0 | 0.0 | 0.00 | 0.30 | 0.30 | 96 | 1012.1 |
| 20260510031507 | 9 | 137 | 0.0 | 0.0 | 0.00 | 0.30 | 0.30 | 96 | 1012.0 |
| 20260510030108 | 9 | 139 | 0.0 | 0.0 | 0.00 | 0.30 | 0.30 | 96 | 1011.8 |
| 20260510024504 | 9 | 139 | 0.0 | 1.6 | 0.00 | 0.30 | 0.30 | 95 | 1011.8 |
| 20260510023003 | 10 | 360 | 0.0 | 0.0 | 0.00 | 0.30 | 0.30 | 95 | 1011.8 |
| 20260510021506 | 10 | 360 | 0.0 | 0.0 | 0.00 | 0.30 | 0.30 | 95 | 1011.7 |
| 20260510020100 | 10 | 138 | 0.0 | 0.0 | 0.00 | 0.30 | 0.30 | 95 | 1011.6 |
| 20260510014601 | 10 | 360 | 0.0 | 0.0 | 0.00 | 0.30 | 0.30 | 95 | 1011.4 |
| 20260510013103 | 10 | 139 | 0.0 | 0.0 | 0.00 | 0.30 | 0.30 | 95 | 1011.5 |
| 20260510011557 | 11 | 138 | 0.0 | 1.6 | 0.00 | 0.30 | 0.30 | 94 | 1011.4 |
| 20260510010054 | 11 | 137 | 0.0 | 0.0 | 0.00 | 0.30 | 0.30 | 94 | 1011.2 |
| 20260510004553 | 11 | 137 | 0.0 | 0.0 | 0.00 | 0.30 | 0.30 | 94 | 1011.1 |
| 20260510003057 | 11 | 137 | 0.0 | 0.0 | 0.00 | 0.30 | 0.30 | 94 | 1011.1 |
| 20260510001552 | 12 | 137 | 0.0 | 1.6 | 0.00 | 0.30 | 0.30 | 93 | 1011.0 |
| 20260510000055 | 12 | 138 | 0.0 | 1.6 | 0.00 | 0.30 | 0.30 | 92 | 1011.0 |
| 20260509234602 | 13 | 137 | 0.0 | 1.6 | 0.00 | 0.30 | 0.30 | 92 | 1011.0 |
| 20260509233055 | 13 | 140 | 0.0 | 0.0 | 0.00 | 0.30 | 0.30 | 92 | 1010.9 |
| 20260509231606 | 13 | 138 | 0.0 | 0.0 | 0.00 | 0.30 | 0.30 | 92 | 1010.9 |
| 20260509230059 | 13 | 138 | 0.0 | 0.0 | 0.00 | 0.30 | 0.30 | 92 | 1010.9 |
| 20260509224547 | 13 | 119 | 0.0 | 0.0 | 0.00 | 0.30 | 0.30 | 93 | 1010.9 |
| 20260509223048 | 13 | 119 | 0.0 | 4.8 | 0.00 | 0.30 | 0.30 | 93 | 1011.0 |
| 20260509221545 | 13 | 126 | 0.0 | 6.4 | 0.03 | 0.30 | 0.30 | 93 | 1010.9 |
| 20260509220044 | 13 | 131 | 0.0 | 0.0 | 0.03 | 0.30 | 0.30 | 94 | 1010.9 |
| 20260509214544 | 13 | 139 | 0.0 | 0.0 | 0.03 | 0.30 | 0.30 | 93 | 1011.0 |
| 20260509213046 | 13 | 128 | 0.0 | 0.0 | 0.10 | 0.30 | 0.30 | 93 | 1011.2 |
| 20260509211550 | 13 | 128 | 0.0 | 0.0 | 0.10 | 0.28 | 0.28 | 93 | 1011.3 |
| 20260509210057 | 13 | 127 | 0.0 | 0.0 | 0.10 | 0.28 | 0.28 | 93 | 1011.1 |
| 20260509204542 | 12 | 67 | 0.0 | 3.2 | 0.13 | 0.28 | 0.28 | 93 | 1011.2 |
| 20260509203045 | 12 | 46 | 0.0 | 4.8 | 0.08 | 0.20 | 0.20 | 92 | 1010.8 |
| 20260509201553 | 13 | 319 | 1.6 | 4.8 | 0.08 | 0.18 | 0.18 | 93 | 1011.0 |
| 20260509200038 | 13 | 46 | 0.0 | 3.2 | 0.08 | 0.18 | 0.18 | 93 | 1011.1 |
| 20260509194536 | 12 | 96 | 0.0 | 6.4 | 0.05 | 0.15 | 0.15 | 93 | 1011.3 |
| 20260509193038 | 13 | 13 | 1.6 | 6.4 | 0.05 | 0.13 | 0.13 | 92 | 1011.5 |
| 20260509191539 | 13 | 305 | 0.0 | 0.0 | 0.05 | 0.10 | 0.10 | 93 | 1011.8 |
| 20260509190036 | 13 | 360 | 1.6 | 4.8 | 0.08 | 0.10 | 0.10 | 92 | 1012.0 |
| 20260509184541 | 13 | 360 | 3.2 | 8.0 | 0.08 | 0.10 | 0.10 | 92 | 1011.9 |
| 20260509183035 | 13 | 360 | 0.0 | 4.8 | 0.05 | 0.08 | 0.08 | 92 | 1012.2 |
| 20260509181530 | 13 | 36 | 1.6 | 4.8 | 0.03 | 0.05 | 0.05 | 90 | 1012.2 |
| 20260509180029 | 13 | 282 | 3.2 | 9.7 | 0.00 | 0.03 | 0.03 | 88 | 1012.3 |
| 20260509174528 | 14 | 273 | 1.6 | 8.0 | 0.00 | 0.03 | 0.03 | 85 | 1012.3 |
| 20260509173030 | 14 | 303 | 1.6 | 4.8 | 0.03 | 0.03 | 0.03 | 84 | 1012.0 |
| 20260509171535 | 14 | 276 | 0.0 | 4.8 | 0.03 | 0.03 | 0.03 | 86 | 1012.0 |
| 20260509170025 | 13 | 287 | 1.6 | 4.8 | 0.03 | 0.03 | 0.03 | 85 | 1012.2 |